contact:dominique.lefevre@mio.osupytheas.fr, maurice.libes@osupytheas.fr, didier.mallarino@osupytheas.fr
Project:EMSO http://www.emso-fr.org/EMSO-France
Depth: 2436.0 m
Title:EMSO Ligure Ouest : Data MII capteur MICROCAT
DateTime_Computer,Latitude,Longitude,Temperature,Conductivity,Pressure,DateTime_Instrument
DateTime_Computer,Latitude,Longitude,degC,S m-1,dbar,DateTime_Instrument
2020-03-23T00:00:43Z,42.805,6.029,13.3029,4.60014,2469.876,2020-3-23T02:01:21Z
2020-03-23T00:03:46Z,42.805,6.029,13.2970,4.60008,2469.853,2020-3-23T02:04:24Z
2020-03-23T00:06:50Z,42.805,6.029,13.2968,4.60001,2469.867,2020-3-23T02:07:27Z
2020-03-23T00:09:53Z,42.805,6.029,13.2967,4.60006,2469.83,2020-3-23T02:10:31Z
2020-03-23T00:12:56Z,42.805,6.029,13.2966,4.59995,2469.867,2020-3-23T02:13:34Z
2020-03-23T00:15:59Z,42.805,6.029,13.2964,4.59982,2469.89,2020-3-23T02:16:37Z
2020-03-23T00:19:03Z,42.805,6.029,13.2968,4.59986,2469.839,2020-3-23T02:19:40Z
2020-03-23T00:22:06Z,42.805,6.029,13.2965,4.59989,2469.867,2020-3-23T02:22:44Z
2020-03-23T00:25:09Z,42.805,6.029,13.2967,4.60002,2469.853,2020-3-23T02:25:47Z
2020-03-23T00:28:12Z,42.805,6.029,13.2963,4.59984,2469.876,2020-3-23T02:28:50Z
2020-03-23T00:31:16Z,42.805,6.029,13.2964,4.59982,2469.844,2020-3-23T02:31:53Z
2020-03-23T00:34:19Z,42.805,6.029,13.2976,4.59986,2469.853,2020-3-23T02:34:56Z
2020-03-23T00:37:22Z,42.805,6.029,13.3024,4.60007,2469.867,2020-3-23T02:38:00Z
2020-03-23T00:40:25Z,42.805,6.029,13.3044,4.60023,2469.853,2020-3-23T02:41:03Z
2020-03-23T00:43:29Z,42.805,6.029,13.3032,4.60011,2469.867,2020-3-23T02:44:06Z
2020-03-23T00:46:32Z,42.805,6.029,13.3036,4.60023,2469.867,2020-3-23T02:47:10Z
2020-03-23T00:49:35Z,42.805,6.029,13.3024,4.60011,2469.867,2020-3-23T02:50:13Z
2020-03-23T00:52:38Z,42.805,6.029,13.3028,4.60001,2469.853,2020-3-23T02:53:16Z
2020-03-23T00:55:42Z,42.805,6.029,13.3010,4.59996,2469.853,2020-3-23T02:56:19Z
2020-03-23T00:58:45Z,42.805,6.029,13.3009,4.60009,2469.844,2020-3-23T02:59:23Z
2020-03-23T01:01:48Z,42.805,6.029,13.3019,4.60016,2469.867,2020-3-23T03:02:26Z
2020-03-23T01:04:51Z,42.805,6.029,13.3041,4.60025,2469.853,2020-3-23T03:05:29Z
2020-03-23T01:07:55Z,42.805,6.029,13.3026,4.60003,2469.844,2020-3-23T03:08:32Z
2020-03-23T01:10:58Z,42.805,6.029,13.3021,4.60020,2469.876,2020-3-23T03:11:36Z
2020-03-23T01:14:01Z,42.805,6.029,13.3042,4.60011,2469.867,2020-3-23T03:14:39Z
2020-03-23T01:17:04Z,42.805,6.029,13.3028,4.59998,2469.876,2020-3-23T03:17:42Z
2020-03-23T01:20:08Z,42.805,6.029,13.3041,4.60009,2469.844,2020-3-23T03:20:45Z
2020-03-23T01:23:11Z,42.805,6.029,13.3023,4.60009,2469.844,2020-3-23T03:23:49Z
2020-03-23T01:26:14Z,42.805,6.029,13.3024,4.60004,2469.876,2020-3-23T03:26:52Z
2020-03-23T01:29:17Z,42.805,6.029,13.3021,4.60009,2469.876,2020-3-23T03:29:55Z
2020-03-23T01:32:21Z,42.805,6.029,13.3016,4.60005,2469.867,2020-3-23T03:32:58Z
2020-03-23T01:35:24Z,42.805,6.029,13.3014,4.60016,2469.89,2020-3-23T03:36:02Z
2020-03-23T01:38:27Z,42.805,6.029,13.3014,4.60013,2469.844,2020-3-23T03:39:05Z
2020-03-23T01:41:30Z,42.805,6.029,13.3020,4.60001,2469.89,2020-3-23T03:42:08Z
2020-03-23T01:44:33Z,42.805,6.029,13.3042,4.60011,2469.876,2020-3-23T03:45:11Z
2020-03-23T01:47:37Z,42.805,6.029,13.3037,4.60002,2469.853,2020-3-23T03:48:14Z
2020-03-23T01:50:40Z,42.805,6.029,13.3023,4.59996,2469.853,2020-3-23T03:51:18Z
2020-03-23T01:53:43Z,42.805,6.029,13.3028,4.60009,2469.867,2020-3-23T03:54:21Z
2020-03-23T01:56:46Z,42.805,6.029,13.3010,4.60016,2469.83,2020-3-23T03:57:24Z
2020-03-23T01:59:50Z,42.805,6.029,13.3050,4.60002,2469.867,2020-3-23T04:00:28Z
2020-03-23T02:02:53Z,42.805,6.029,13.3015,4.60013,2469.876,2020-3-23T04:03:31Z
2020-03-23T02:05:56Z,42.805,6.029,13.3019,4.60003,2469.853,2020-3-23T04:06:34Z
2020-03-23T02:09:00Z,42.805,6.029,13.3009,4.59998,2469.867,2020-3-23T04:09:37Z
2020-03-23T02:12:03Z,42.805,6.029,13.3015,4.60006,2469.876,2020-3-23T04:12:41Z
2020-03-23T02:15:06Z,42.805,6.029,13.3028,4.60008,2469.876,2020-3-23T04:15:44Z
2020-03-23T02:18:09Z,42.805,6.029,13.3022,4.60006,2469.876,2020-3-23T04:18:47Z
2020-03-23T02:21:13Z,42.805,6.029,13.3031,4.59999,2469.853,2020-3-23T04:21:50Z
2020-03-23T02:24:16Z,42.805,6.029,13.3002,4.59996,2469.876,2020-3-23T04:24:54Z
2020-03-23T02:27:19Z,42.805,6.029,13.3000,4.60003,2469.876,2020-3-23T04:27:57Z
2020-03-23T02:30:22Z,42.805,6.029,13.3011,4.60011,2469.853,2020-3-23T04:31:00Z
2020-03-23T02:33:26Z,42.805,6.029,13.3013,4.60009,2469.867,2020-3-23T04:34:03Z
2020-03-23T02:36:29Z,42.805,6.029,13.3019,4.60006,2469.89,2020-3-23T04:37:07Z
2020-03-23T02:39:32Z,42.805,6.029,13.3019,4.59999,2469.853,2020-3-23T04:40:10Z
2020-03-23T02:42:36Z,42.805,6.029,13.3015,4.59992,2469.876,2020-3-23T04:43:13Z
2020-03-23T02:45:39Z,42.805,6.029,13.3015,4.60003,2469.89,2020-3-23T04:46:17Z
2020-03-23T02:48:42Z,42.805,6.029,13.3015,4.60006,2469.867,2020-3-23T04:49:20Z
2020-03-23T02:51:45Z,42.805,6.029,13.3024,4.60000,2469.923,2020-3-23T04:52:23Z
2020-03-23T02:54:49Z,42.805,6.029,13.3007,4.59999,2469.89,2020-3-23T04:55:26Z
2020-03-23T02:57:52Z,42.805,6.029,13.3012,4.60014,2469.9,2020-3-23T04:58:30Z
2020-03-23T03:00:55Z,42.805,6.029,13.3040,4.60011,2469.937,2020-3-23T05:01:33Z
2020-03-23T03:03:58Z,42.805,6.029,13.3015,4.59994,2469.9,2020-3-23T05:04:36Z
2020-03-23T03:07:02Z,42.805,6.029,13.3022,4.60000,2469.867,2020-3-23T05:07:39Z
2020-03-23T03:10:05Z,42.805,6.029,13.3009,4.59992,2469.914,2020-3-23T05:10:43Z
2020-03-23T03:13:08Z,42.805,6.029,13.3011,4.60001,2469.914,2020-3-23T05:13:46Z
2020-03-23T03:16:12Z,42.805,6.029,13.3007,4.59994,2469.914,2020-3-23T05:16:49Z
2020-03-23T03:19:15Z,42.805,6.029,13.3009,4.59995,2469.9,2020-3-23T05:19:53Z
2020-03-23T03:22:18Z,42.805,6.029,13.3011,4.59998,2469.9,2020-3-23T05:22:56Z
2020-03-23T03:25:21Z,42.805,6.029,13.3015,4.60024,2469.9,2020-3-23T05:25:59Z
2020-03-23T03:28:25Z,42.805,6.029,13.3020,4.60008,2469.937,2020-3-23T05:29:03Z
2020-03-23T03:31:28Z,42.805,6.029,13.3028,4.60000,2469.923,2020-3-23T05:32:06Z
2020-03-23T03:34:31Z,42.805,6.029,13.3008,4.59993,2469.984,2020-3-23T05:35:09Z
2020-03-23T03:37:35Z,42.805,6.029,13.3008,4.60004,2469.923,2020-3-23T05:38:12Z
2020-03-23T03:40:38Z,42.805,6.029,13.3019,4.59994,2469.947,2020-3-23T05:41:16Z
2020-03-23T03:43:41Z,42.805,6.029,13.3019,4.59994,2469.96,2020-3-23T05:44:19Z
2020-03-23T03:46:44Z,42.805,6.029,13.3009,4.59997,2469.947,2020-3-23T05:47:22Z
2020-03-23T03:49:48Z,42.805,6.029,13.3021,4.60006,2469.923,2020-3-23T05:50:25Z
2020-03-23T03:52:51Z,42.805,6.029,13.3001,4.60000,2469.923,2020-3-23T05:53:29Z
2020-03-23T03:55:54Z,42.805,6.029,13.2998,4.60006,2469.97,2020-3-23T05:56:32Z
2020-03-23T03:58:58Z,42.805,6.029,13.3004,4.60000,2469.984,2020-3-23T05:59:35Z
2020-03-23T04:02:01Z,42.805,6.029,13.3011,4.59994,2469.96,2020-3-23T06:02:39Z
2020-03-23T04:05:04Z,42.805,6.029,13.3009,4.60003,2469.984,2020-3-23T06:05:42Z
2020-03-23T04:08:07Z,42.805,6.029,13.3022,4.60006,2469.96,2020-3-23T06:08:45Z
2020-03-23T04:11:11Z,42.805,6.029,13.3009,4.59986,2469.947,2020-3-23T06:11:48Z
2020-03-23T04:14:14Z,42.805,6.029,13.3011,4.59987,2469.947,2020-3-23T06:14:51Z
2020-03-23T04:17:17Z,42.805,6.029,13.2996,4.59997,2469.96,2020-3-23T06:17:55Z
2020-03-23T04:20:21Z,42.805,6.029,13.3004,4.59988,2469.984,2020-3-23T06:20:58Z
2020-03-23T04:23:24Z,42.805,6.029,13.3019,4.59999,2469.984,2020-3-23T06:24:02Z
2020-03-23T04:26:27Z,42.805,6.029,13.2998,4.59990,2469.97,2020-3-23T06:27:05Z
2020-03-23T04:29:30Z,42.805,6.029,13.3014,4.60013,2469.993,2020-3-23T06:30:08Z
2020-03-23T04:32:34Z,42.805,6.029,13.3008,4.60003,2469.97,2020-3-23T06:33:11Z
2020-03-23T04:35:37Z,42.805,6.029,13.3009,4.59994,2469.984,2020-3-23T06:36:15Z
2020-03-23T04:38:40Z,42.805,6.029,13.3007,4.60008,2470.017,2020-3-23T06:39:18Z
2020-03-23T04:41:43Z,42.805,6.029,13.3000,4.59991,2469.993,2020-3-23T06:42:21Z
2020-03-23T04:44:47Z,42.805,6.029,13.3020,4.59996,2469.97,2020-3-23T06:45:24Z
2020-03-23T04:47:50Z,42.805,6.029,13.3006,4.59999,2470.017,2020-3-23T06:48:28Z
2020-03-23T04:50:53Z,42.805,6.029,13.2997,4.59994,2470.007,2020-3-23T06:51:31Z
2020-03-23T04:53:56Z,42.805,6.029,13.3014,4.60011,2469.993,2020-3-23T06:54:34Z
2020-03-23T04:57:00Z,42.805,6.029,13.3000,4.60005,2470.03,2020-3-23T06:57:37Z
2020-03-23T05:00:03Z,42.805,6.029,13.3000,4.59996,2470.03,2020-3-23T07:00:40Z
2020-03-23T05:03:06Z,42.805,6.029,13.3003,4.59996,2470.04,2020-3-23T07:03:44Z
2020-03-23T05:06:09Z,42.805,6.029,13.3013,4.60002,2469.993,2020-3-23T07:06:47Z
2020-03-23T05:09:12Z,42.805,6.029,13.3011,4.59986,2470.03,2020-3-23T07:09:50Z
2020-03-23T05:12:16Z,42.805,6.029,13.3000,4.60000,2470.04,2020-3-23T07:12:53Z
2020-03-23T05:15:19Z,42.805,6.029,13.3016,4.59999,2470.007,2020-3-23T07:15:56Z
2020-03-23T05:18:22Z,42.805,6.029,13.3021,4.59991,2470.053,2020-3-23T07:19:00Z
2020-03-23T05:21:25Z,42.805,6.029,13.3004,4.60003,2470.04,2020-3-23T07:22:03Z
2020-03-23T05:24:28Z,42.805,6.029,13.2990,4.59987,2470.053,2020-3-23T07:25:06Z
2020-03-23T05:27:32Z,42.805,6.029,13.2995,4.60002,2470.077,2020-3-23T07:28:09Z
2020-03-23T05:30:35Z,42.805,6.029,13.2996,4.59994,2470.04,2020-3-23T07:31:13Z
2020-03-23T05:33:38Z,42.805,6.029,13.3011,4.59991,2470.04,2020-3-23T07:34:16Z
2020-03-23T05:36:42Z,42.805,6.029,13.2998,4.59991,2470.04,2020-3-23T07:37:19Z
2020-03-23T05:39:45Z,42.805,6.029,13.3006,4.60002,2470.053,2020-3-23T07:40:23Z
2020-03-23T05:42:48Z,42.805,6.029,13.3000,4.59995,2470.04,2020-3-23T07:43:26Z
2020-03-23T05:45:51Z,42.805,6.029,13.3000,4.59994,2470.063,2020-3-23T07:46:29Z
2020-03-23T05:48:55Z,42.805,6.029,13.2991,4.59994,2470.077,2020-3-23T07:49:32Z
2020-03-23T05:51:58Z,42.805,6.029,13.3020,4.59990,2470.053,2020-3-23T07:52:36Z
2020-03-23T05:55:01Z,42.805,6.029,13.3014,4.59994,2470.077,2020-3-23T07:55:39Z
2020-03-23T05:58:04Z,42.805,6.029,13.3000,4.59991,2470.1,2020-3-23T07:58:42Z
2020-03-23T06:01:08Z,42.805,6.029,13.3007,4.59994,2470.1,2020-3-23T08:01:45Z
2020-03-23T06:04:11Z,42.805,6.029,13.3011,4.60003,2470.063,2020-3-23T08:04:49Z
2020-03-23T06:07:14Z,42.805,6.029,13.3031,4.59997,2470.063,2020-3-23T08:07:52Z
2020-03-23T06:10:17Z,42.805,6.029,13.3016,4.59993,2470.063,2020-3-23T08:10:55Z
2020-03-23T06:13:21Z,42.805,6.029,13.3006,4.59990,2470.077,2020-3-23T08:13:58Z
2020-03-23T06:16:24Z,42.805,6.029,13.3006,4.60006,2470.077,2020-3-23T08:17:02Z
2020-03-23T06:19:27Z,42.805,6.029,13.3004,4.59992,2470.1,2020-3-23T08:20:05Z
2020-03-23T06:22:30Z,42.805,6.029,13.2995,4.59990,2470.077,2020-3-23T08:23:08Z
2020-03-23T06:25:33Z,42.805,6.029,13.2996,4.59994,2470.124,2020-3-23T08:26:11Z
2020-03-23T06:28:37Z,42.805,6.029,13.3005,4.59982,2470.063,2020-3-23T08:29:14Z
2020-03-23T06:31:40Z,42.805,6.029,13.2993,4.59991,2470.11,2020-3-23T08:32:18Z
2020-03-23T06:34:43Z,42.805,6.029,13.2994,4.60009,2470.087,2020-3-23T08:35:21Z
2020-03-23T06:37:46Z,42.805,6.029,13.3001,4.60003,2470.063,2020-3-23T08:38:24Z
2020-03-23T06:40:49Z,42.805,6.029,13.3009,4.59998,2470.063,2020-3-23T08:41:27Z
2020-03-23T06:43:53Z,42.805,6.029,13.3005,4.59996,2470.077,2020-3-23T08:44:31Z
2020-03-23T06:46:56Z,42.805,6.029,13.3010,4.59994,2470.087,2020-3-23T08:47:34Z
2020-03-23T06:49:59Z,42.805,6.029,13.3006,4.59991,2470.087,2020-3-23T08:50:37Z
2020-03-23T06:53:03Z,42.805,6.029,13.3005,4.59999,2470.087,2020-3-23T08:53:40Z
2020-03-23T06:56:06Z,42.805,6.029,13.3005,4.60001,2470.04,2020-3-23T08:56:44Z
2020-03-23T06:59:09Z,42.805,6.029,13.3019,4.59992,2470.087,2020-3-23T08:59:47Z
2020-03-23T07:02:12Z,42.805,6.029,13.3004,4.60005,2470.063,2020-3-23T09:02:50Z
2020-03-23T07:05:16Z,42.805,6.029,13.3011,4.59998,2470.087,2020-3-23T09:05:53Z
2020-03-23T07:08:19Z,42.805,6.029,13.2988,4.59998,2470.087,2020-3-23T09:08:57Z
2020-03-23T07:11:22Z,42.805,6.029,13.3000,4.59988,2470.063,2020-3-23T09:12:00Z
2020-03-23T07:14:25Z,42.805,6.029,13.3015,4.60004,2470.087,2020-3-23T09:15:03Z
2020-03-23T07:17:29Z,42.805,6.029,13.2997,4.59999,2470.1,2020-3-23T09:18:06Z
2020-03-23T07:20:32Z,42.805,6.029,13.3000,4.60009,2470.124,2020-3-23T09:21:10Z
2020-03-23T07:23:35Z,42.805,6.029,13.3018,4.59984,2470.063,2020-3-23T09:24:13Z
2020-03-23T07:26:38Z,42.805,6.029,13.3019,4.60006,2470.124,2020-3-23T09:27:16Z
2020-03-23T07:29:41Z,42.805,6.029,13.3012,4.59999,2470.11,2020-3-23T09:30:19Z
2020-03-23T07:32:45Z,42.805,6.029,13.3005,4.59991,2470.124,2020-3-23T09:33:23Z
2020-03-23T07:35:48Z,42.805,6.029,13.2992,4.59998,2470.1,2020-3-23T09:36:26Z
2020-03-23T07:38:51Z,42.805,6.029,13.3001,4.59991,2470.124,2020-3-23T09:39:29Z
2020-03-23T07:41:55Z,42.805,6.029,13.3012,4.59996,2470.087,2020-3-23T09:42:32Z
2020-03-23T07:44:58Z,42.805,6.029,13.3019,4.60006,2470.087,2020-3-23T09:45:36Z
2020-03-23T07:48:01Z,42.805,6.029,13.3015,4.59999,2470.087,2020-3-23T09:48:39Z
2020-03-23T07:51:04Z,42.805,6.029,13.3019,4.60003,2470.077,2020-3-23T09:51:42Z
2020-03-23T07:54:07Z,42.805,6.029,13.3000,4.59998,2470.087,2020-3-23T09:54:45Z
2020-03-23T07:57:11Z,42.805,6.029,13.3017,4.60010,2470.087,2020-3-23T09:57:48Z
2020-03-23T08:00:14Z,42.805,6.029,13.3006,4.59986,2470.087,2020-3-23T10:00:52Z
2020-03-23T08:03:17Z,42.805,6.029,13.2994,4.59987,2470.1,2020-3-23T10:03:55Z
2020-03-23T08:06:20Z,42.805,6.029,13.3011,4.60003,2470.063,2020-3-23T10:06:58Z
2020-03-23T08:09:24Z,42.805,6.029,13.3010,4.60001,2470.077,2020-3-23T10:10:01Z
2020-03-23T08:12:27Z,42.805,6.029,13.2998,4.60016,2470.087,2020-3-23T10:13:05Z
2020-03-23T08:15:30Z,42.805,6.029,13.3014,4.59986,2470.063,2020-3-23T10:16:08Z
2020-03-23T08:18:33Z,42.805,6.029,13.2985,4.60001,2470.1,2020-3-23T10:19:11Z
2020-03-23T08:21:37Z,42.805,6.029,13.3015,4.59999,2470.077,2020-3-23T10:22:14Z
2020-03-23T08:24:40Z,42.805,6.029,13.3011,4.60004,2470.063,2020-3-23T10:25:18Z
2020-03-23T08:27:43Z,42.805,6.029,13.3009,4.60003,2470.114,2020-3-23T10:28:21Z
2020-03-23T08:30:46Z,42.805,6.029,13.3008,4.60006,2470.063,2020-3-23T10:31:24Z
2020-03-23T08:33:50Z,42.805,6.029,13.3004,4.60010,2470.1,2020-3-23T10:34:28Z
2020-03-23T08:36:53Z,42.805,6.029,13.2995,4.59988,2470.087,2020-3-23T10:37:31Z
2020-03-23T08:39:56Z,42.805,6.029,13.3004,4.59992,2470.063,2020-3-23T10:40:34Z
2020-03-23T08:43:00Z,42.805,6.029,13.2998,4.60028,2470.049,2020-3-23T10:43:37Z
2020-03-23T08:46:03Z,42.805,6.029,13.3011,4.60003,2470.04,2020-3-23T10:46:41Z
2020-03-23T08:49:06Z,42.805,6.029,13.2998,4.60000,2470.04,2020-3-23T10:49:44Z
2020-03-23T08:52:09Z,42.805,6.029,13.3024,4.60014,2470.1,2020-3-23T10:52:47Z
2020-03-23T08:55:13Z,42.805,6.029,13.3006,4.60003,2470.04,2020-3-23T10:55:50Z
2020-03-23T08:58:16Z,42.805,6.029,13.3016,4.60001,2470.063,2020-3-23T10:58:54Z
2020-03-23T09:01:19Z,42.805,6.029,13.2992,4.60002,2470.077,2020-3-23T11:01:57Z
2020-03-23T09:04:22Z,42.805,6.029,13.3010,4.59991,2470.053,2020-3-23T11:05:00Z
2020-03-23T09:07:25Z,42.805,6.029,13.3009,4.60015,2470.077,2020-3-23T11:08:03Z
2020-03-23T09:10:29Z,42.805,6.029,13.3006,4.60001,2470.04,2020-3-23T11:11:06Z
2020-03-23T09:13:32Z,42.805,6.029,13.3009,4.60011,2470.04,2020-3-23T11:14:10Z
2020-03-23T09:16:35Z,42.805,6.029,13.3011,4.59998,2470.077,2020-3-23T11:17:13Z
2020-03-23T09:19:39Z,42.805,6.029,13.3011,4.60020,2470.077,2020-3-23T11:20:16Z
2020-03-23T09:22:42Z,42.805,6.029,13.3024,4.60014,2470.049,2020-3-23T11:23:20Z
2020-03-23T09:25:45Z,42.805,6.029,13.3015,4.60009,2470.053,2020-3-23T11:26:23Z
2020-03-23T09:28:48Z,42.805,6.029,13.3030,4.60005,2470.053,2020-3-23T11:29:26Z
2020-03-23T09:31:51Z,42.805,6.029,13.3009,4.60010,2470.04,2020-3-23T11:32:29Z
2020-03-23T09:34:55Z,42.805,6.029,13.2999,4.59999,2470.077,2020-3-23T11:35:33Z
2020-03-23T09:37:58Z,42.805,6.029,13.2998,4.60011,2470.053,2020-3-23T11:38:36Z
2020-03-23T09:41:01Z,42.805,6.029,13.3011,4.60019,2470.053,2020-3-23T11:41:39Z
2020-03-23T09:44:05Z,42.805,6.029,13.3021,4.59998,2470.053,2020-3-23T11:44:42Z
2020-03-23T09:47:08Z,42.805,6.029,13.3008,4.59997,2470.03,2020-3-23T11:47:46Z
2020-03-23T09:50:11Z,42.805,6.029,13.3018,4.59994,2470.017,2020-3-23T11:50:49Z
2020-03-23T09:53:14Z,42.805,6.029,13.3007,4.60003,2470.03,2020-3-23T11:53:52Z
2020-03-23T09:56:18Z,42.805,6.029,13.3000,4.60011,2470.017,2020-3-23T11:56:55Z
2020-03-23T09:59:21Z,42.805,6.029,13.3007,4.60001,2470.007,2020-3-23T11:59:59Z
2020-03-23T10:02:24Z,42.805,6.029,13.3011,4.59997,2470.03,2020-3-23T12:03:02Z
2020-03-23T10:05:27Z,42.805,6.029,13.3022,4.59997,2470.03,2020-3-23T12:06:05Z
2020-03-23T10:08:31Z,42.805,6.029,13.3030,4.59991,2469.993,2020-3-23T12:09:08Z
2020-03-23T10:11:34Z,42.805,6.029,13.3008,4.59997,2469.993,2020-3-23T12:12:12Z
2020-03-23T10:14:37Z,42.805,6.029,13.3043,4.60001,2469.993,2020-3-23T12:15:15Z
2020-03-23T10:17:40Z,42.805,6.029,13.3012,4.60003,2470.007,2020-3-23T12:18:18Z
2020-03-23T10:20:43Z,42.805,6.029,13.2999,4.59995,2470.017,2020-3-23T12:21:21Z
2020-03-23T10:23:47Z,42.805,6.029,13.2998,4.60002,2469.97,2020-3-23T12:24:24Z
2020-03-23T10:26:50Z,42.805,6.029,13.3041,4.60003,2470.007,2020-3-23T12:27:28Z
2020-03-23T10:29:53Z,42.805,6.029,13.3021,4.59999,2470.03,2020-3-23T12:30:31Z
2020-03-23T10:32:56Z,42.805,6.029,13.3013,4.60011,2469.993,2020-3-23T12:33:34Z
2020-03-23T10:36:00Z,42.805,6.029,13.3009,4.60000,2469.97,2020-3-23T12:36:38Z
2020-03-23T10:39:03Z,42.805,6.029,13.3034,4.60004,2469.97,2020-3-23T12:39:41Z
2020-03-23T10:42:06Z,42.805,6.029,13.3011,4.60011,2469.984,2020-3-23T12:42:44Z
2020-03-23T10:45:09Z,42.805,6.029,13.3006,4.60001,2470.007,2020-3-23T12:45:47Z
2020-03-23T10:48:13Z,42.805,6.029,13.3024,4.60006,2470.007,2020-3-23T12:48:51Z
2020-03-23T10:51:16Z,42.805,6.029,13.3006,4.60001,2470.007,2020-3-23T12:51:54Z
2020-03-23T10:54:19Z,42.805,6.029,13.3002,4.59994,2470.007,2020-3-23T12:54:57Z
2020-03-23T10:57:23Z,42.805,6.029,13.2998,4.59996,2469.984,2020-3-23T12:58:00Z
2020-03-23T11:00:26Z,42.805,6.029,13.3009,4.59991,2469.97,2020-3-23T13:01:04Z
2020-03-23T11:03:29Z,42.805,6.029,13.2993,4.60003,2469.984,2020-3-23T13:04:07Z
2020-03-23T11:06:32Z,42.805,6.029,13.3006,4.59999,2469.984,2020-3-23T13:07:10Z
2020-03-23T11:09:35Z,42.805,6.029,13.3005,4.59994,2469.947,2020-3-23T13:10:13Z
2020-03-23T11:12:39Z,42.805,6.029,13.3011,4.59996,2470.007,2020-3-23T13:13:16Z
2020-03-23T11:15:42Z,42.805,6.029,13.3015,4.60004,2469.984,2020-3-23T13:16:20Z
2020-03-23T11:18:45Z,42.805,6.029,13.3004,4.60004,2469.984,2020-3-23T13:19:23Z
2020-03-23T11:21:48Z,42.805,6.029,13.3004,4.60009,2469.947,2020-3-23T13:22:26Z
2020-03-23T11:24:52Z,42.805,6.029,13.3005,4.59989,2469.947,2020-3-23T13:25:30Z
2020-03-23T11:27:55Z,42.805,6.029,13.3000,4.59991,2470.017,2020-3-23T13:28:33Z
2020-03-23T11:30:58Z,42.805,6.029,13.2999,4.59990,2469.947,2020-3-23T13:31:36Z
2020-03-23T11:34:01Z,42.805,6.029,13.2991,4.59989,2469.947,2020-3-23T13:34:39Z
2020-03-23T11:37:05Z,42.805,6.029,13.3006,4.59989,2469.937,2020-3-23T13:37:43Z
2020-03-23T11:40:08Z,42.805,6.029,13.2996,4.59987,2469.914,2020-3-23T13:40:46Z
2020-03-23T11:43:11Z,42.805,6.029,13.3008,4.59985,2469.97,2020-3-23T13:43:49Z
2020-03-23T11:46:14Z,42.805,6.029,13.2991,4.59985,2469.937,2020-3-23T13:46:52Z
2020-03-23T11:49:18Z,42.805,6.029,13.2998,4.59994,2469.96,2020-3-23T13:49:56Z
2020-03-23T11:52:21Z,42.805,6.029,13.2999,4.59993,2469.947,2020-3-23T13:52:59Z
2020-03-23T11:55:24Z,42.805,6.029,13.3026,4.59995,2469.984,2020-3-23T13:56:02Z
2020-03-23T11:58:27Z,42.805,6.029,13.3000,4.59998,2469.923,2020-3-23T13:59:05Z
2020-03-23T12:01:31Z,42.805,6.029,13.2998,4.59999,2469.947,2020-3-23T14:02:08Z
2020-03-23T12:04:34Z,42.805,6.029,13.3015,4.59999,2469.923,2020-3-23T14:05:12Z
2020-03-23T12:07:37Z,42.805,6.029,13.2995,4.59996,2469.96,2020-3-23T14:08:15Z
2020-03-23T12:10:40Z,42.805,6.029,13.2996,4.60001,2469.947,2020-3-23T14:11:18Z
2020-03-23T12:13:44Z,42.805,6.029,13.2993,4.59997,2469.923,2020-3-23T14:14:21Z
2020-03-23T12:16:47Z,42.805,6.029,13.2996,4.59987,2469.914,2020-3-23T14:17:25Z
2020-03-23T12:19:50Z,42.805,6.029,13.3006,4.59996,2469.9,2020-3-23T14:20:28Z
2020-03-23T12:22:54Z,42.805,6.029,13.2993,4.59994,2469.923,2020-3-23T14:23:31Z
2020-03-23T12:25:57Z,42.805,6.029,13.2988,4.59991,2469.96,2020-3-23T14:26:35Z
2020-03-23T12:29:00Z,42.805,6.029,13.2993,4.59990,2469.937,2020-3-23T14:29:38Z
2020-03-23T12:32:03Z,42.805,6.029,13.2995,4.59991,2469.96,2020-3-23T14:32:41Z
2020-03-23T12:35:06Z,42.805,6.029,13.2991,4.59986,2469.9,2020-3-23T14:35:44Z
2020-03-23T12:38:10Z,42.805,6.029,13.2990,4.59990,2469.96,2020-3-23T14:38:48Z
2020-03-23T12:41:13Z,42.805,6.029,13.2998,4.59988,2469.937,2020-3-23T14:41:51Z
2020-03-23T12:44:16Z,42.805,6.029,13.3001,4.59986,2469.947,2020-3-23T14:44:54Z
2020-03-23T12:47:19Z,42.805,6.029,13.2992,4.59992,2469.9,2020-3-23T14:47:57Z
2020-03-23T12:50:23Z,42.805,6.029,13.2987,4.59986,2469.937,2020-3-23T14:51:00Z
2020-03-23T12:53:26Z,42.805,6.029,13.2993,4.59988,2469.914,2020-3-23T14:54:04Z
2020-03-23T12:56:29Z,42.805,6.029,13.2993,4.59994,2469.914,2020-3-23T14:57:07Z
2020-03-23T12:59:32Z,42.805,6.029,13.3004,4.59994,2469.937,2020-3-23T15:00:10Z
2020-03-23T13:02:36Z,42.805,6.029,13.3008,4.59996,2469.923,2020-3-23T15:03:14Z
2020-03-23T13:05:39Z,42.805,6.029,13.2998,4.59989,2469.923,2020-3-23T15:06:17Z
2020-03-23T13:08:42Z,42.805,6.029,13.2993,4.59987,2469.876,2020-3-23T15:09:20Z
2020-03-23T13:11:46Z,42.805,6.029,13.2990,4.60005,2469.9,2020-3-23T15:12:23Z
2020-03-23T13:14:49Z,42.805,6.029,13.2991,4.59986,2469.914,2020-3-23T15:15:27Z
2020-03-23T13:17:52Z,42.805,6.029,13.2987,4.59984,2469.89,2020-3-23T15:18:30Z
2020-03-23T13:20:55Z,42.805,6.029,13.2980,4.59996,2469.9,2020-3-23T15:21:33Z
2020-03-23T13:23:59Z,42.805,6.029,13.2990,4.59996,2469.923,2020-3-23T15:24:37Z
2020-03-23T13:27:02Z,42.805,6.029,13.2993,4.59997,2469.876,2020-3-23T15:27:40Z
2020-03-23T13:30:05Z,42.805,6.029,13.2990,4.59986,2469.89,2020-3-23T15:30:43Z
2020-03-23T13:33:08Z,42.805,6.029,13.2996,4.59999,2469.867,2020-3-23T15:33:46Z
2020-03-23T13:36:12Z,42.805,6.029,13.3012,4.60008,2469.89,2020-3-23T15:36:49Z
2020-03-23T13:39:15Z,42.805,6.029,13.3005,4.60010,2469.876,2020-3-23T15:39:53Z
2020-03-23T13:42:18Z,42.805,6.029,13.3000,4.59994,2469.89,2020-3-23T15:42:56Z
2020-03-23T13:45:21Z,42.805,6.029,13.2983,4.59989,2469.914,2020-3-23T15:45:59Z
2020-03-23T13:48:25Z,42.805,6.029,13.2992,4.60001,2469.876,2020-3-23T15:49:02Z
2020-03-23T13:51:28Z,42.805,6.029,13.2983,4.59996,2469.9,2020-3-23T15:52:06Z
2020-03-23T13:54:31Z,42.805,6.029,13.2998,4.59999,2469.89,2020-3-23T15:55:09Z
2020-03-23T13:57:34Z,42.805,6.029,13.2993,4.60005,2469.914,2020-3-23T15:58:12Z
2020-03-23T14:00:38Z,42.805,6.029,13.3005,4.60003,2469.876,2020-3-23T16:01:15Z
2020-03-23T14:03:41Z,42.805,6.029,13.3004,4.60000,2469.876,2020-3-23T16:04:19Z
2020-03-23T14:06:44Z,42.805,6.029,13.3014,4.60014,2469.89,2020-3-23T16:07:22Z
2020-03-23T14:09:47Z,42.805,6.029,13.2976,4.59999,2469.9,2020-3-23T16:10:25Z
2020-03-23T14:12:50Z,42.805,6.029,13.2976,4.60007,2469.853,2020-3-23T16:13:28Z
2020-03-23T14:15:54Z,42.805,6.029,13.2974,4.59988,2469.876,2020-3-23T16:16:31Z
2020-03-23T14:18:57Z,42.805,6.029,13.2981,4.59986,2469.9,2020-3-23T16:19:35Z
2020-03-23T14:22:00Z,42.805,6.029,13.2977,4.59986,2469.9,2020-3-23T16:22:38Z
2020-03-23T14:25:03Z,42.805,6.029,13.2968,4.59993,2469.914,2020-3-23T16:25:41Z
2020-03-23T14:28:06Z,42.805,6.029,13.2967,4.60004,2469.89,2020-3-23T16:28:44Z
2020-03-23T14:31:10Z,42.805,6.029,13.3001,4.60003,2469.876,2020-3-23T16:31:47Z
2020-03-23T14:34:13Z,42.805,6.029,13.2972,4.59996,2469.923,2020-3-23T16:34:51Z
2020-03-23T14:37:16Z,42.805,6.029,13.2992,4.59985,2469.876,2020-3-23T16:37:54Z
2020-03-23T14:40:19Z,42.805,6.029,13.2990,4.59998,2469.9,2020-3-23T16:40:57Z
2020-03-23T14:43:22Z,42.805,6.029,13.2995,4.60001,2469.867,2020-3-23T16:44:00Z
2020-03-23T14:46:26Z,42.805,6.029,13.2967,4.59990,2469.89,2020-3-23T16:47:03Z
2020-03-23T14:49:29Z,42.805,6.029,13.2976,4.59993,2469.89,2020-3-23T16:50:07Z
2020-03-23T14:52:32Z,42.805,6.029,13.2967,4.59988,2469.914,2020-3-23T16:53:10Z
2020-03-23T14:55:35Z,42.805,6.029,13.2971,4.59990,2469.9,2020-3-23T16:56:13Z
2020-03-23T14:58:38Z,42.805,6.029,13.2979,4.59995,2469.867,2020-3-23T16:59:16Z
2020-03-23T15:01:42Z,42.805,6.029,13.2990,4.60000,2469.914,2020-3-23T17:02:20Z
2020-03-23T15:04:45Z,42.805,6.029,13.2979,4.59995,2469.909,2020-3-23T17:05:23Z
2020-03-23T15:07:48Z,42.805,6.029,13.2994,4.60011,2469.914,2020-3-23T17:08:26Z
2020-03-23T15:10:51Z,42.805,6.029,13.2996,4.59999,2469.876,2020-3-23T17:11:29Z
2020-03-23T15:13:55Z,42.805,6.029,13.2991,4.60003,2469.876,2020-3-23T17:14:32Z